Location: Vlissingen
(51.4500°N, 3.5830°E)
Time: 05:21:49
(UTC+02:00)

N. Korean satellite - Visible Passes

Search period start: 02 October 2022 00:00
Search period end: 12 October 2022 00:00
Orbit: 426 x 468 km, 97.3° (Epoch: 01 October)

Date Brightness Start Highest point End Pass type
(mag) Time Alt. Az. Time Alt. Az. Time Alt. Az.
02 Oct 9.5 06:15:28 10° NE 06:17:42 17° E 06:19:56 10° SE visible
03 Oct 6.5 07:11:29 10° NNE 07:14:47 81° E 07:18:03 10° S visible
04 Oct 8.6 06:35:53 10° NE 06:38:47 28° E 06:41:40 10° SSE visible
05 Oct 9.9 06:01:16 10° ENE 06:02:33 12° E 06:03:49 10° ESE visible
06 Oct 7.3 06:56:24 10° NNE 06:59:37 51° E 07:02:48 10° S visible
07 Oct 9.3 06:20:55 10° NE 06:23:24 19° E 06:25:51 10° SE visible
08 Oct 6.3 07:16:54 10° NNE 07:20:12 87° WNW 07:23:29 10° SSW visible
09 Oct 8.3 06:40:59 10° NNE 06:43:59 32° E 06:46:59 10° SSE visible
10 Oct 9.7 06:05:52 10° ENE 06:07:34 13° E 06:09:15 10° ESE visible
11 Oct 7.0 07:01:05 10° NNE 07:04:20 58° ESE 07:07:35 10° S visible
